COSMOS 2251 DEB

Satellite information

Favourite Embed

Satellite Type and Status

DEBRISIN ORBIT

Key statistics

Satellite COSMOS 2251 DEB at a glance.

Uptime

11649

Days in orbit

Revolutions

≈ 14.2

Per day

Orbit

LEO

Low Earth Orbit

Inclination

74.0

Latest

Satellite identification and parameters

Extended collection of information and parameters for COSMOS 2251 DEB.

Object identification

Identified? True

Debris? True

Object name: COSMOS 2251 DEB

International designator: 1993-036WJ

Object number (NORAD): 34613

Object ID (CCSDS): 34613

Country: COMMONWEALTH OF INDEPENDENT STATES (CIS)

Current information (Y/N): Y

RCS size: SMALL

Orbital parameters

Period: 101.081 minutes

Inclination: 73.9655 deg

SMA: 7187.986 km

Apoapsis: 892.39 km

Periapsis: 727.312 km

RAAN: 315.8703 deg

Eccentricy: 0.0114829

Argument of periapsis: 193.4913 deg

Mean anomaly: 227.2503 deg

Mean motion: 14.24596632 rev/day

Mean motion (dot): 0.00003958 rev/day2

B* drag term: 0.0016011 1/REarth

Two-line elements (TLE)

Creation date: May 8, 2025, 3:01 a.m.

Reference frame: TEME

Reference center: EARTH

Epoch: May 7, 2025, 1:44 p.m. UTC

TLE line 0: 0 COSMOS 2251 DEB

TLE line 1: 1 34613U 93036WJ 25127.57248476 .00003958 00000-0 16011-2 0 9994

TLE line 2: 2 34613 73.9655 315.8703 0114829 193.4913 227.2503 14.24596632833407

Live tracking on map

Real-time ground track for satellite COSMOS 2251 DEB.

In-orbit conjunctions

A list of the most updated potential collisions computed for object COSMOS 2251 DEB.

Target Orbit TCA Probability of collision Miss distance Type
CZ-6A DEB LEO 2025-01-09 20:46:24 0.0001363852 487.0 (m) DEBRIS
COSMOS 1140 LEO 2024-11-15 21:51:03 0.0003422682 296.0 (m) PAYLOAD
ARIANE 1 R/B SSO 2024-11-12 21:51:47 0.0002335553 994.0 (m) ROCKET BODY
CZ-6A DEB LEO 2024-10-19 06:51:26 0.0001372208 364.0 (m) DEBRIS
ERS 1 SSO 2024-07-29 07:19:21 0.0001807211 82.0 (m) PAYLOAD

Associated space launch

Military communications satellite. Destroyed in a collision with Iridium 33.

COSMOS 2251 DEB was lifted into orbit during the mission ‘Kosmos-3M | Strela-2M 51’, on board a Kosmos-3M space rocket.

The launch took place on June 16, 1993, 4:17 a.m. from 132/1 (132L).

For more information about the launch, click the button.

Launch to space Kosmos-3M | Strela-2M 51
Kosmos-3M | Strela-2M 51

Agency: N/A

Status: Launch Successful

Launch date: June 16, 1993, 4:17 a.m. UTC

Rocket: Kosmos-3M

Launch pad: 132/1 (132L)

Location: Plesetsk Cosmodrome, Russian Federation

...

Latest news about this satellite

There are no fresh news available about this satellite. Check back as we update our databases every day.


Newsletter sign-up

Weekly statistics, charts and insights to help you stay on top of the space industry.